OPS 5712 (P/L 153)

Last updated on Fri Jun 26 2026 00:03:51 GMT+0000 (Coordinated Universal Time)

1 02874U 67053H 26176.50161846 .00000018 00000+0 51444-4 0 9995 2 02874 69.9741 97.4859 0008052 204.4560 155.6165 13.96829497 7955
UTC large
Height (km)
Speed (km/s)
/
Latitude / Longitude
Inclination (degrees)
Orbital Period (minutes)
Azimuth
Elevation
Range (km)
Doppler Factor

Next 0 passes for location: London (51.5072 / 0.1276)

No passes found over London.
OPS 5712 (P/L 153)